Zurück zum Katalog

TRAILBLAZER 2

AktivWissenschaftLEO
NORAD 27609·PAYLOAD·🇺🇸 United States

Gestartet Dec 20, 2002 von Baikonur Cosmodrome

Loading…

Nächste Überflüge (nächste 24 Stunden)

TLE

AktuellSource: Space-Track

Epoche: Sep 14, 2026, 11:03 UTC

1 27609U 02058E   26257.46044988  .00000213  00000-0  45534-4 0  9995
2 27609  64.5548  61.3598 0042678 231.5601 128.1671 14.81398226280915

Verfolge TRAILBLAZER 2 in Echtzeit mit AllMySat

Download on the App Store